Weather in Neritsa

Russia / Komi Republic     65°18′10″N   52°41′22″E
temp.,
°C
wind,
m/s
gust,
m/s
humid.,
%
clouds,
%
prec.,
mm/h
press.,
hPa
HPBL,
m
19 september, sun
sun1900:00+3n51276100 0.0 10211438
03:00+3nnw51176100 0.0 10221362
06:00+3nnw51178100 0.0 10221249
09:00+3nnw61178100 0.1 10231150
12:00+4n51172100 0.1 10241405
15:00+4n61169100 0.2 10251366
18:00+4n51071100 0.0 10261325
21:00+4n4969100 0.0 10271212
20 september, mon
mon2000:00+3n4868100 0.0 10291150
03:00+4n4867100 0.0 1030963
06:00+3nnw3773100 0.0 1032795
09:00+4nnw3770100 0.0 1033961
12:00+5n4662100 0.0 10341152
15:00+6nnw3564100 0.0 10341152
18:00+4nnw247560 0.0 1034147
21:00+1wnw228697 0.0 103342
21 september, tue
tue2100:00+1wnw2688100 0.0 1033158
03:00+1wnw2893100 0.0 1033186
06:00+1wnw289587 0.0 1032212
09:00+6nw367111 0.0 1031462
12:00+9nnw35525 0.0 1030952
15:00+9nnw35516 0.0 10301006
18:00+5nnw227444 0.0 103017
21:00+3nnw228347 0.0 103040
22 september, wed
wed2200:00+2nw229195 0.0 103023
03:00+1nw229583 0.0 103046
06:000nnw229493 0.0 103052
09:00+6n236886 0.0 1030353
12:00+9nw115260 0.0 1029696
15:00+10nnw11505 0.0 1029688
18:00+4n11735 0.0 102910
21:00+3se11815 0.0 102910
23 september, thu
thu2300:00+2s11870 0.0 102910
03:00+1s22892 0.0 102817
06:00+1sse11880 0.0 102816
09:00+7s24610 0.0 1027324
12:00+11s35551 0.0 1026752
15:00+11sse47600 0.0 1024943
18:00+6sse28845 0.0 1024170
21:00+4sse29920 0.0 1024187